User: anonymous   Login
Location: Unspecified
(40.7945°N, 0.0000°E)
Time: 11:37:04
(UTC+00:00)
Language:

METEOR M2 - Orbit

View from above orbital plane
View from above orbital plane
View from above satellite
View from above satellite

Ground track
Ground track

The orbit data is extracted from the following two-line orbital elements,

1 40069U 14037A   20294.20275997 -.00000007  00000-0  16207-4 0  9990
2 40069  98.4915 326.9519 0004543 284.4812  75.5861 14.20676374325920
Epoch (UTC): 20 October 2020 04:51:58
Eccentricity: 0.0004543
inclination: 98.4915°
perigee height: 820 km
apogee height: 826 km
right ascension of ascending node: 326.9519°
argument of perigee: 284.4812°
revolutions per day: 14.20676374
mean anomaly at epoch: 75.5861°
orbit number at epoch: 32592

The dashed part of the orbit path shows where the satellite is in the earth's shadow,  

DLR